Bitflower — SBJE — position and weather

sailwx.info

Track history (hours):
 
Tides and Currents Weather Stations Pressure Air Temp Water Temp Dewpoint Dewpoint Depression Visibility Wind Speed Wind Dir Waves Ship Positions

Bitflower

Last reported at 2014-Oct-25 19:31 UTC. Time now 2014-Oct-26 00:21 UTC.
Position N 50°02' W 003°29'.

Length 116 m; draft 6.6 m.

Type: Ship. MMSI: 266009000.

Date/timePositionNaut miles runAvg speedWind from/ knotsBaromVisibWave heightAir tempDewpointWater temp
2014-Oct-25 19:31N 50°02' W 003°29'7 7.3
2014-Oct-25 18:33N 50°02' W 003°18'13211.5
2014-Oct-25 07:05N 50°33' E 000°03'1013.2
2014-Oct-25 06:18N 50°36' E 000°18'1013.1
2014-Oct-25 05:33N 50°38' E 000°33'1312.8
2014-Oct-25 04:33N 50°45' E 000°49'1212.2
2014-Oct-25 03:33N 50°53' E 001°05'1111.1
2014-Oct-25 02:32N 51°00' E 001°19'10 9.7
2014-Oct-25 01:33N 51°06' E 001°31'9 9.0
2014-Oct-25 00:34N 51°11' E 001°42'9 9.5
2014-Oct-24 23:34N 51°19' E 001°51'1010.3
2014-Oct-24 22:33N 51°24' E 002°05'1211.6
2014-Oct-24 21:33N 51°22' E 002°24'1312.5
2014-Oct-24 20:29N 51°22' E 002°45'1814.1
2014-Oct-24 19:13N 51°25' E 003°14'1015.2
2014-Oct-24 18:33N 51°25' E 003°30'1111.0
2014-Oct-24 17:33N 51°22' E 003°46'1110.6
2014-Oct-24 16:33N 51°23' E 004°03'9 9.0
2014-Oct-24 15:33N 51°21' E 004°17'0 0.0
2014-Oct-24 14:33N 51°21' E 004°17'1 0.6
2014-Oct-24 13:31N 51°20' E 004°18'5 4.8
2014-Oct-24 12:32N 51°16' E 004°22'0 0.1
2014-Oct-24 11:30N 51°16' E 004°21'0 0.0
2014-Oct-24 10:28N 51°16' E 004°21'0 0.0
2014-Oct-24 09:30N 51°16' E 004°21'0 0.0
2014-Oct-24 08:30N 51°16' E 004°21'0 0.0
2014-Oct-24 07:28N 51°16' E 004°21'0 0.0
2014-Oct-24 06:33N 51°16' E 004°21'0 0.0
2014-Oct-24 05:25N 51°16' E 004°21'0 0.0
2014-Oct-24 04:34N 51°16' E 004°21'0 0.0
2014-Oct-24 03:30N 51°16' E 004°21'0 0.0
2014-Oct-24 02:30N 51°16' E 004°21'0 0.0
2014-Oct-24 01:30N 51°16' E 004°21'0 0.0
2014-Oct-24 00:28N 51°16' E 004°21'0 0.0
2014-Oct-23 23:30N 51°16' E 004°21'0 0.0
2014-Oct-23 22:28N 51°16' E 004°21'0 0.0
2014-Oct-23 21:31N 51°16' E 004°21'0 0.0
2014-Oct-23 20:31N 51°16' E 004°21'0 0.0
2014-Oct-23 19:31N 51°16' E 004°21'0 0.0
2014-Oct-23 18:31N 51°16' E 004°21'0 0.0
2014-Oct-23 17:31N 51°16' E 004°21'0 0.0
2014-Oct-23 16:31N 51°16' E 004°21'0 0.0
2014-Oct-23 15:25N 51°16' E 004°21'0 0.0
2014-Oct-23 14:28N 51°16' E 004°21'0 0.0
2014-Oct-23 13:31N 51°16' E 004°21'0 0.0
2014-Oct-23 12:28N 51°16' E 004°21'0 0.0
2014-Oct-23 11:31N 51°16' E 004°21'0 0.0
2014-Oct-23 10:33N 51°16' E 004°21'0 0.0
2014-Oct-23 09:33N 51°16' E 004°21'0 0.0
2014-Oct-23 08:33N 51°16' E 004°21'0 0.0
2014-Oct-23 07:33N 51°16' E 004°21'3 2.9
2014-Oct-23 06:33N 51°19' E 004°19'2 2.1
2014-Oct-23 05:30N 51°21' E 004°17'3 2.8
2014-Oct-23 04:33N 51°22' E 004°13'7 7.5
2014-Oct-23 03:33N 51°24' E 004°02'8 7.7
2014-Oct-23 02:33N 51°21' E 003°51'1010.3
2014-Oct-23 01:33N 51°26' E 003°37'1010.0
2014-Oct-23 00:33N 51°33' E 003°25'1313.0
2014-Oct-22 23:32N 51°44' E 003°13'8 0.5
2014-Oct-22 09:22N 51°39' E 003°03'2 2.3
2014-Oct-22 08:33N 51°38' E 003°06'6 6.0
2014-Oct-22 07:33N 51°44' E 003°11'101 9.2
2014-Oct-21 20:33N 53°13' E 004°28'1010.5
2014-Oct-21 19:34N 53°23' E 004°35'8 8.3
2014-Oct-21 18:33N 53°30' E 004°43'8 6.0
2014-Oct-21 17:16N 53°32' E 004°55'4 5.4
2014-Oct-21 16:30N 53°34' E 005°01'6 6.8
2014-Oct-21 15:34N 53°36' E 005°12'9 8.5
2014-Oct-21 14:33N 53°39' E 005°25'10 9.6
2014-Oct-21 13:33N 53°42' E 005°41'1010.3
2014-Oct-21 12:33N 53°45' E 005°57'6010.9
2014-Oct-21 07:05N 54°00' E 007°35'510.1
2014-Oct-21 06:34N 54°01' E 007°44'1111.0
2014-Oct-21 05:34N 54°01' E 008°03'1312.1
2014-Oct-21 04:30N 53°59' E 008°24'1414.4
2014-Oct-21 03:33N 53°52' E 008°44'1515.1
2014-Oct-21 02:33N 53°53' E 009°09'1312.8
2014-Oct-21 01:33N 53°44' E 009°26'1212.2
2014-Oct-21 00:33N 53°35' E 009°38'1111.2
2014-Oct-20 23:33N 53°32' E 009°56'3 3.3
2014-Oct-20 22:30N 53°29' E 009°57'0 0.0
2014-Oct-20 21:30N 53°29' E 009°57'0 0.0
2014-Oct-20 20:33N 53°29' E 009°57'0 0.0
2014-Oct-20 19:33N 53°29' E 009°57'0 0.0
2014-Oct-20 18:30N 53°29' E 009°57'0 0.0
2014-Oct-20 17:30N 53°29' E 009°57'0 0.0
2014-Oct-20 16:30N 53°29' E 009°57'0 0.0
2014-Oct-20 15:30N 53°29' E 009°57'0 0.0
2014-Oct-20 14:33N 53°29' E 009°57'0 0.0
2014-Oct-20 13:33N 53°29' E 009°57'0 0.0
2014-Oct-20 12:33N 53°29' E 009°57'0 0.0
2014-Oct-20 11:33N 53°29' E 009°57'0 0.0
2014-Oct-20 10:33N 53°29' E 009°57'4 4.3
2014-Oct-20 09:33N 53°32' E 009°54'9 8.6
2014-Oct-20 08:33N 53°34' E 009°40'7 7.1
2014-Oct-20 07:33N 53°39' E 009°31'8 7.5
2014-Oct-20 06:33N 53°45' E 009°24'9 6.8
2014-Oct-20 05:10N 53°53' E 009°15'4 6.4
2014-Oct-20 04:33N 53°53' E 009°08'3 2.9
2014-Oct-20 03:33N 53°55' E 009°12'19 7.7
2014-Oct-20 01:05N 54°11' E 009°30'4 8.2
2014-Oct-20 00:33N 54°14' E 009°36'8 7.5
2014-Oct-19 23:33N 54°20' E 009°44'7 7.4
2014-Oct-19 22:33N 54°20' E 009°56'6 6.0
2014-Oct-19 21:33N 54°22' E 010°06'4 4.1
2014-Oct-19 20:33N 54°24' E 010°12'9 8.9
2014-Oct-19 19:32N 54°32' E 010°19'0 0.3
2014-Oct-19 18:31N 54°33' E 010°19'0 0.0
2014-Oct-19 17:25N 54°33' E 010°19'0 0.0
2014-Oct-19 16:25N 54°33' E 010°19'0 0.0
2014-Oct-19 15:19N 54°33' E 010°19'0 0.0
2014-Oct-19 14:31N 54°33' E 010°19'0 0.0
2014-Oct-19 13:25N 54°33' E 010°19'0 0.0
2014-Oct-19 12:25N 54°33' E 010°19'0 0.0
2014-Oct-19 11:31N 54°33' E 010°19'0 0.0
2014-Oct-19 10:19N 54°33' E 010°19'0 0.0
2014-Oct-19 09:13N 54°33' E 010°19'0 0.0
2014-Oct-19 08:31N 54°33' E 010°19'0 0.0
2014-Oct-19 07:31N 54°33' E 010°19'0 0.0
2014-Oct-19 06:19N 54°33' E 010°19'0 0.0
2014-Oct-19 05:25N 54°33' E 010°19'0 0.0
2014-Oct-19 04:31N 54°33' E 010°19'0 0.0
2014-Oct-19 03:31N 54°33' E 010°19'0 0.0
2014-Oct-19 02:19N 54°33' E 010°19'0 0.0
2014-Oct-19 01:31N 54°33' E 010°19'0 0.0
2014-Oct-19 00:25N 54°33' E 010°19'0 0.0
2014-Oct-18 23:31N 54°33' E 010°19'0 0.0
2014-Oct-18 22:25N 54°33' E 010°19'0 0.0
2014-Oct-18 21:31N 54°33' E 010°19'0 0.0
2014-Oct-18 20:31N 54°33' E 010°19'0 0.0
2014-Oct-18 19:31N 54°33' E 010°19'0 0.0
2014-Oct-18 18:31N 54°33' E 010°19'0 0.0
2014-Oct-18 17:13N 54°33' E 010°19'0 0.0
2014-Oct-18 16:31N 54°33' E 010°19'0 0.0
2014-Oct-18 15:19N 54°33' E 010°19'0 0.0
2014-Oct-18 14:25N 54°33' E 010°19'0 0.0
2014-Oct-18 13:31N 54°33' E 010°19'0 0.0
2014-Oct-18 12:31N 54°33' E 010°19'0 0.0
2014-Oct-18 11:31N 54°33' E 010°19'6 6.1
2014-Oct-18 10:33N 54°34' E 010°28'1211.8
2014-Oct-18 09:33N 54°35' E 010°49'2412.0
2014-Oct-18 07:33N 54°31' E 011°29'1813.6
2014-Oct-18 06:14N 54°26' E 011°59'711.0
2014-Oct-18 05:33N 54°29' E 012°11'10611.7
2014-Oct-17 20:29N 55°28' E 014°44'1212.1
2014-Oct-17 19:27N 55°35' E 015°02'4112.6
2014-Oct-17 16:14N 55°56' E 016°04'912.8
2014-Oct-17 15:34N 56°00' E 016°17'61 1.6
2014-Oct-16 01:23N 55°27' E 014°46'1111.4
2014-Oct-16 00:27N 55°20' E 014°32'1111.5
2014-Oct-15 23:29N 55°12' E 014°18'  
Track history (hours):
 
Tides and Currents Weather Stations Pressure Air Temp Water Temp Dewpoint Dewpoint Depression Visibility Wind Speed Wind Dir Waves Ship Positions

Bitflower

Last reported at 2014-Oct-25 19:31 UTC. Time now 2014-Oct-26 00:21 UTC.
Position N 50°02' W 003°29'.

Length 116 m; draft 6.6 m.

Type: Ship. MMSI: 266009000.

Date/timePositionNaut miles runAvg speedWind from/ knotsBaromVisibWave heightAir tempDewpointWater temp
2014-Oct-25 19:31N 50°02' W 003°29'7 7.3
2014-Oct-25 18:33N 50°02' W 003°18'13211.5
2014-Oct-25 07:05N 50°33' E 000°03'1013.2
2014-Oct-25 06:18N 50°36' E 000°18'1013.1
2014-Oct-25 05:33N 50°38' E 000°33'1312.8
2014-Oct-25 04:33N 50°45' E 000°49'1212.2
2014-Oct-25 03:33N 50°53' E 001°05'1111.1
2014-Oct-25 02:32N 51°00' E 001°19'10 9.7
2014-Oct-25 01:33N 51°06' E 001°31'9 9.0
2014-Oct-25 00:34N 51°11' E 001°42'9 9.5
2014-Oct-24 23:34N 51°19' E 001°51'1010.3
2014-Oct-24 22:33N 51°24' E 002°05'1211.6
2014-Oct-24 21:33N 51°22' E 002°24'1312.5
2014-Oct-24 20:29N 51°22' E 002°45'1814.1
2014-Oct-24 19:13N 51°25' E 003°14'1015.2
2014-Oct-24 18:33N 51°25' E 003°30'1111.0
2014-Oct-24 17:33N 51°22' E 003°46'1110.6
2014-Oct-24 16:33N 51°23' E 004°03'9 9.0
2014-Oct-24 15:33N 51°21' E 004°17'0 0.0
2014-Oct-24 14:33N 51°21' E 004°17'1 0.6
2014-Oct-24 13:31N 51°20' E 004°18'5 4.8
2014-Oct-24 12:32N 51°16' E 004°22'0 0.1
2014-Oct-24 11:30N 51°16' E 004°21'0 0.0
2014-Oct-24 10:28N 51°16' E 004°21'0 0.0
2014-Oct-24 09:30N 51°16' E 004°21'0 0.0
2014-Oct-24 08:30N 51°16' E 004°21'0 0.0
2014-Oct-24 07:28N 51°16' E 004°21'0 0.0
2014-Oct-24 06:33N 51°16' E 004°21'0 0.0
2014-Oct-24 05:25N 51°16' E 004°21'0 0.0
2014-Oct-24 04:34N 51°16' E 004°21'0 0.0
2014-Oct-24 03:30N 51°16' E 004°21'0 0.0
2014-Oct-24 02:30N 51°16' E 004°21'0 0.0
2014-Oct-24 01:30N 51°16' E 004°21'0 0.0
2014-Oct-24 00:28N 51°16' E 004°21'0 0.0
2014-Oct-23 23:30N 51°16' E 004°21'0 0.0
2014-Oct-23 22:28N 51°16' E 004°21'0 0.0
2014-Oct-23 21:31N 51°16' E 004°21'0 0.0
2014-Oct-23 20:31N 51°16' E 004°21'0 0.0
2014-Oct-23 19:31N 51°16' E 004°21'0 0.0
2014-Oct-23 18:31N 51°16' E 004°21'0 0.0
2014-Oct-23 17:31N 51°16' E 004°21'0 0.0
2014-Oct-23 16:31N 51°16' E 004°21'0 0.0
2014-Oct-23 15:25N 51°16' E 004°21'0 0.0
2014-Oct-23 14:28N 51°16' E 004°21'0 0.0
2014-Oct-23 13:31N 51°16' E 004°21'0 0.0
2014-Oct-23 12:28N 51°16' E 004°21'0 0.0
2014-Oct-23 11:31N 51°16' E 004°21'0 0.0
2014-Oct-23 10:33N 51°16' E 004°21'0 0.0
2014-Oct-23 09:33N 51°16' E 004°21'0 0.0
2014-Oct-23 08:33N 51°16' E 004°21'0 0.0
2014-Oct-23 07:33N 51°16' E 004°21'3 2.9
2014-Oct-23 06:33N 51°19' E 004°19'2 2.1
2014-Oct-23 05:30N 51°21' E 004°17'3 2.8
2014-Oct-23 04:33N 51°22' E 004°13'7 7.5
2014-Oct-23 03:33N 51°24' E 004°02'8 7.7
2014-Oct-23 02:33N 51°21' E 003°51'1010.3
2014-Oct-23 01:33N 51°26' E 003°37'1010.0
2014-Oct-23 00:33N 51°33' E 003°25'1313.0
2014-Oct-22 23:32N 51°44' E 003°13'8 0.5
2014-Oct-22 09:22N 51°39' E 003°03'2 2.3
2014-Oct-22 08:33N 51°38' E 003°06'6 6.0
2014-Oct-22 07:33N 51°44' E 003°11'101 9.2
2014-Oct-21 20:33N 53°13' E 004°28'1010.5
2014-Oct-21 19:34N 53°23' E 004°35'8 8.3
2014-Oct-21 18:33N 53°30' E 004°43'8 6.0
2014-Oct-21 17:16N 53°32' E 004°55'4 5.4
2014-Oct-21 16:30N 53°34' E 005°01'6 6.8
2014-Oct-21 15:34N 53°36' E 005°12'9 8.5
2014-Oct-21 14:33N 53°39' E 005°25'10 9.6
2014-Oct-21 13:33N 53°42' E 005°41'1010.3
2014-Oct-21 12:33N 53°45' E 005°57'6010.9
2014-Oct-21 07:05N 54°00' E 007°35'510.1
2014-Oct-21 06:34N 54°01' E 007°44'1111.0
2014-Oct-21 05:34N 54°01' E 008°03'1312.1
2014-Oct-21 04:30N 53°59' E 008°24'1414.4
2014-Oct-21 03:33N 53°52' E 008°44'1515.1
2014-Oct-21 02:33N 53°53' E 009°09'1312.8
2014-Oct-21 01:33N 53°44' E 009°26'1212.2
2014-Oct-21 00:33N 53°35' E 009°38'1111.2
2014-Oct-20 23:33N 53°32' E 009°56'3 3.3
2014-Oct-20 22:30N 53°29' E 009°57'0 0.0
2014-Oct-20 21:30N 53°29' E 009°57'0 0.0
2014-Oct-20 20:33N 53°29' E 009°57'0 0.0
2014-Oct-20 19:33N 53°29' E 009°57'0 0.0
2014-Oct-20 18:30N 53°29' E 009°57'0 0.0
2014-Oct-20 17:30N 53°29' E 009°57'0 0.0
2014-Oct-20 16:30N 53°29' E 009°57'0 0.0
2014-Oct-20 15:30N 53°29' E 009°57'0 0.0
2014-Oct-20 14:33N 53°29' E 009°57'0 0.0
2014-Oct-20 13:33N 53°29' E 009°57'0 0.0
2014-Oct-20 12:33N 53°29' E 009°57'0 0.0
2014-Oct-20 11:33N 53°29' E 009°57'0 0.0
2014-Oct-20 10:33N 53°29' E 009°57'4 4.3
2014-Oct-20 09:33N 53°32' E 009°54'9 8.6
2014-Oct-20 08:33N 53°34' E 009°40'7 7.1
2014-Oct-20 07:33N 53°39' E 009°31'8 7.5
2014-Oct-20 06:33N 53°45' E 009°24'9 6.8
2014-Oct-20 05:10N 53°53' E 009°15'4 6.4
2014-Oct-20 04:33N 53°53' E 009°08'3 2.9
2014-Oct-20 03:33N 53°55' E 009°12'19 7.7
2014-Oct-20 01:05N 54°11' E 009°30'4 8.2
2014-Oct-20 00:33N 54°14' E 009°36'8 7.5
2014-Oct-19 23:33N 54°20' E 009°44'7 7.4
2014-Oct-19 22:33N 54°20' E 009°56'6 6.0
2014-Oct-19 21:33N 54°22' E 010°06'4 4.1
2014-Oct-19 20:33N 54°24' E 010°12'9 8.9
2014-Oct-19 19:32N 54°32' E 010°19'0 0.3
2014-Oct-19 18:31N 54°33' E 010°19'0 0.0
2014-Oct-19 17:25N 54°33' E 010°19'0 0.0
2014-Oct-19 16:25N 54°33' E 010°19'0 0.0
2014-Oct-19 15:19N 54°33' E 010°19'0 0.0
2014-Oct-19 14:31N 54°33' E 010°19'0 0.0
2014-Oct-19 13:25N 54°33' E 010°19'0 0.0
2014-Oct-19 12:25N 54°33' E 010°19'0 0.0
2014-Oct-19 11:31N 54°33' E 010°19'0 0.0
2014-Oct-19 10:19N 54°33' E 010°19'0 0.0
2014-Oct-19 09:13N 54°33' E 010°19'0 0.0
2014-Oct-19 08:31N 54°33' E 010°19'0 0.0
2014-Oct-19 07:31N 54°33' E 010°19'0 0.0
2014-Oct-19 06:19N 54°33' E 010°19'0 0.0
2014-Oct-19 05:25N 54°33' E 010°19'0 0.0
2014-Oct-19 04:31N 54°33' E 010°19'0 0.0
2014-Oct-19 03:31N 54°33' E 010°19'0 0.0
2014-Oct-19 02:19N 54°33' E 010°19'0 0.0
2014-Oct-19 01:31N 54°33' E 010°19'0 0.0
2014-Oct-19 00:25N 54°33' E 010°19'0 0.0
2014-Oct-18 23:31N 54°33' E 010°19'0 0.0
2014-Oct-18 22:25N 54°33' E 010°19'0 0.0
2014-Oct-18 21:31N 54°33' E 010°19'0 0.0
2014-Oct-18 20:31N 54°33' E 010°19'0 0.0
2014-Oct-18 19:31N 54°33' E 010°19'0 0.0
2014-Oct-18 18:31N 54°33' E 010°19'0 0.0
2014-Oct-18 17:13N 54°33' E 010°19'0 0.0
2014-Oct-18 16:31N 54°33' E 010°19'0 0.0
2014-Oct-18 15:19N 54°33' E 010°19'0 0.0
2014-Oct-18 14:25N 54°33' E 010°19'0 0.0
2014-Oct-18 13:31N 54°33' E 010°19'0 0.0
2014-Oct-18 12:31N 54°33' E 010°19'0 0.0
2014-Oct-18 11:31N 54°33' E 010°19'6 6.1
2014-Oct-18 10:33N 54°34' E 010°28'1211.8
2014-Oct-18 09:33N 54°35' E 010°49'2412.0
2014-Oct-18 07:33N 54°31' E 011°29'1813.6
2014-Oct-18 06:14N 54°26' E 011°59'711.0
2014-Oct-18 05:33N 54°29' E 012°11'10611.7
2014-Oct-17 20:29N 55°28' E 014°44'1212.1
2014-Oct-17 19:27N 55°35' E 015°02'4112.6
2014-Oct-17 16:14N 55°56' E 016°04'912.8
2014-Oct-17 15:34N 56°00' E 016°17'61 1.6
2014-Oct-16 01:23N 55°27' E 014°46'1111.4
2014-Oct-16 00:27N 55°20' E 014°32'1111.5
2014-Oct-15 23:29N 55°12' E 014°18'  

Dump ship's entire track history